Location: Tel Aviv
(32.0670°N, 34.7670°E)
Time: 12:16:41
(UTC+03:00)

Transit 2A - Pass Details

Date: 28 January 2022
Orbit: 598 x 960 km, 66.7° (Epoch: 20 May)

Event Time Altitude Azimuth Distance (km) Brightness Sun altitude
Rises 20:20:15 0° 325° (NW) 3,496 9.8 -40.1°
Reaches altitude 10° 20:23:01 10° 317° (NW) 2,500 9.0 -40.7°
Enters shadow 20:24:25 17° 310° (NW) 2,034 8.6 -41.0°
Maximum altitude 20:28:14 36° 252° (WSW) 1,244 - -41.8°
Drops below altitude 10° 20:32:59 10° 187° (S) 2,263 - -42.8°
Sets 20:35:23 0° 178° (S) 3,124 - -43.3°
